Time,TemperatureF,DewpointF,PressureIn,WindDirection,WindDirectionDegrees,WindSpeedMPH,WindSpeedGustMPH,Humidity,HourlyPrecipIn,Conditions,Clouds,dailyrainin,SoftwareType,DateUTC
2013-01-12 00:00:00,8.7,5.1,30.03,ENE,59,0.0,2.0,85,0.00,,SKC,0.00,VWS V14.00,2013-01-12 07:00:00,
2013-01-12 00:03:00,8.6,5.0,30.03,ENE,59,0.0,0.0,85,0.00,,SKC,0.00,VWS V14.00,2013-01-12 07:03:00,
2013-01-12 00:08:00,8.4,5.1,30.03,ENE,59,0.0,1.0,86,0.00,,SKC,0.00,VWS V14.00,2013-01-12 07:08:00,
2013-01-12 00:14:00,8.2,4.6,30.04,ENE,59,0.0,1.0,85,0.00,,SKC,0.00,VWS V14.00,2013-01-12 07:14:00,
2013-01-12 00:19:00,8.2,5.1,30.04,ENE,59,0.0,1.0,87,0.00,,SKC,0.00,VWS V14.00,2013-01-12 07:19:00,
2013-01-12 00:24:00,8.3,5.0,30.04,ENE,59,0.0,1.0,86,0.00,,SKC,0.00,VWS V14.00,2013-01-12 07:24:00,
2013-01-12 00:29:00,8.5,5.7,30.04,ENE,59,0.0,1.0,88,0.00,,SKC,0.00,VWS V14.00,2013-01-12 07:29:00,
2013-01-12 00:30:00,8.6,5.8,30.04,ENE,59,0.0,1.0,88,0.00,,SKC,0.00,VWS V14.00,2013-01-12 07:30:00,
2013-01-12 00:34:00,8.6,5.5,30.03,ENE,59,0.0,0.0,87,0.00,,SKC,0.00,VWS V14.00,2013-01-12 07:34:00,
2013-01-12 00:40:00,8.7,5.6,30.04,ENE,59,0.0,0.0,87,0.00,,SKC,0.00,VWS V14.00,2013-01-12 07:40:00,
2013-01-12 00:45:00,8.7,5.9,30.04,ENE,59,1.0,1.0,88,0.00,,SKC,0.00,VWS V14.00,2013-01-12 07:45:00,
2013-01-12 00:51:00,9.3,6.7,30.04,ENE,59,0.0,0.0,89,0.00,,SKC,0.00,VWS V14.00,2013-01-12 07:51:00,
2013-01-12 00:56:00,9.4,6.3,30.04,ENE,59,0.0,0.0,87,0.00,,SKC,0.00,VWS V14.00,2013-01-12 07:56:00,
2013-01-12 01:01:00,9.4,6.6,30.04,ENE,59,0.0,0.0,88,0.00,,SKC,0.00,VWS V14.00,2013-01-12 08:01:00,
2013-01-12 01:06:00,9.6,6.8,30.04,ENE,59,0.0,0.0,88,0.00,,SKC,0.00,VWS V14.00,2013-01-12 08:06:00,
2013-01-12 01:11:00,9.7,7.1,30.05,ENE,59,0.0,0.0,89,0.00,,SKC,0.00,VWS V14.00,2013-01-12 08:11:00,
2013-01-12 01:17:00,10.0,7.4,30.05,ENE,59,0.0,0.0,89,0.00,,SKC,0.00,VWS V14.00,2013-01-12 08:17:00,
2013-01-12 01:22:00,10.0,7.4,30.05,ENE,59,0.0,0.0,89,0.00,,SKC,0.00,VWS V14.00,2013-01-12 08:22:00,
2013-01-12 01:27:00,10.0,7.2,30.05,ENE,59,0.0,0.0,88,0.00,,SKC,0.00,VWS V14.00,2013-01-12 08:27:00,
2013-01-12 01:32:00,10.0,6.9,30.05,ENE,59,0.0,0.0,87,0.00,,SKC,0.00,VWS V14.00,2013-01-12 08:32:00,
2013-01-12 01:38:00,9.9,6.8,30.05,ENE,59,0.0,0.0,87,0.00,,SKC,0.00,VWS V14.00,2013-01-12 08:38:00,
2013-01-12 01:43:00,9.9,6.8,30.05,ENE,59,0.0,0.0,87,0.00,,SKC,0.00,VWS V14.00,2013-01-12 08:43:00,
2013-01-12 01:48:00,10.0,7.4,30.06,ENE,59,0.0,0.0,89,0.00,,SKC,0.00,VWS V14.00,2013-01-12 08:48:00,
2013-01-12 01:53:00,10.4,8.1,30.06,ENE,59,0.0,0.0,90,0.00,,SKC,0.00,VWS V14.00,2013-01-12 08:53:00,
2013-01-12 01:59:00,10.4,7.6,30.06,ENE,59,0.0,0.0,88,0.00,,SKC,0.00,VWS V14.00,2013-01-12 08:59:00,
2013-01-12 02:04:00,10.0,6.9,30.06,ENE,59,0.0,1.0,87,0.00,,SKC,0.00,VWS V14.00,2013-01-12 09:04:00,
2013-01-12 02:09:00,9.8,6.7,30.07,ENE,59,0.0,1.0,87,0.00,,SKC,0.00,VWS V14.00,2013-01-12 09:09:00,
2013-01-12 02:14:00,9.4,6.1,30.06,ENE,59,0.0,1.0,86,0.00,,SKC,0.00,VWS V14.00,2013-01-12 09:14:00,
2013-01-12 02:19:00,9.2,5.9,30.07,ENE,59,0.0,1.0,86,0.00,,SKC,0.00,VWS V14.00,2013-01-12 09:19:00,
2013-01-12 02:25:00,8.8,5.5,30.07,ENE,59,0.0,1.0,86,0.00,,SKC,0.00,VWS V14.00,2013-01-12 09:25:00,
2013-01-12 02:30:00,8.6,5.3,30.07,ENE,59,0.0,1.0,86,0.00,,SKC,0.00,VWS V14.00,2013-01-12 09:30:00,
2013-01-12 02:35:00,8.5,5.4,30.07,ENE,59,0.0,0.0,87,0.00,,SKC,0.00,VWS V14.00,2013-01-12 09:35:00,
2013-01-12 02:40:00,8.3,5.0,30.07,ENE,59,0.0,0.0,86,0.00,,SKC,0.00,VWS V14.00,2013-01-12 09:40:00,
2013-01-12 02:46:00,8.0,4.7,30.07,ENE,59,0.0,1.0,86,0.00,,SKC,0.00,VWS V14.00,2013-01-12 09:46:00,
2013-01-12 02:51:00,7.7,4.4,30.07,ENE,59,0.0,1.0,86,0.00,,SKC,0.00,VWS V14.00,2013-01-12 09:51:00,
2013-01-12 02:56:00,7.5,4.2,30.08,ENE,59,0.0,1.0,86,0.00,,SKC,0.00,VWS V14.00,2013-01-12 09:56:00,
2013-01-12 03:01:00,7.4,4.1,30.08,ENE,59,0.0,1.0,86,0.00,,SKC,0.00,VWS V14.00,2013-01-12 10:01:00,
2013-01-12 03:06:00,7.3,4.2,30.08,ENE,59,0.0,0.0,87,0.00,,SKC,0.00,VWS V14.00,2013-01-12 10:06:00,
2013-01-12 03:12:00,7.3,4.0,30.08,ENE,59,0.0,0.0,86,0.00,,SKC,0.00,VWS V14.00,2013-01-12 10:12:00,
2013-01-12 03:17:00,7.1,3.8,30.08,ENE,59,0.0,0.0,86,0.00,,SKC,0.00,VWS V14.00,2013-01-12 10:17:00,
2013-01-12 03:22:00,7.0,3.7,30.08,ENE,59,0.0,1.0,86,0.00,,SKC,0.00,VWS V14.00,2013-01-12 10:22:00,
2013-01-12 03:27:00,6.9,3.6,30.08,ENE,59,0.0,1.0,86,0.00,,SKC,0.00,VWS V14.00,2013-01-12 10:27:00,
2013-01-12 03:33:00,6.7,3.4,30.08,ENE,59,0.0,0.0,86,0.00,,SKC,0.00,VWS V14.00,2013-01-12 10:33:00,
2013-01-12 03:38:00,6.5,3.5,30.08,ENE,59,0.0,1.0,87,0.00,,SKC,0.00,VWS V14.00,2013-01-12 10:38:00,
2013-01-12 03:43:00,6.6,3.6,30.08,ENE,59,0.0,1.0,87,0.00,,SKC,0.00,VWS V14.00,2013-01-12 10:43:00,
2013-01-12 03:48:00,6.6,3.6,30.08,ENE,59,0.0,1.0,87,0.00,,SKC,0.00,VWS V14.00,2013-01-12 10:48:00,
2013-01-12 03:53:00,6.7,3.7,30.07,ENE,59,0.0,1.0,87,0.00,,SKC,0.00,VWS V14.00,2013-01-12 10:53:00,
2013-01-12 03:59:00,6.6,3.6,30.07,ENE,59,0.0,1.0,87,0.00,,SKC,0.00,VWS V14.00,2013-01-12 10:59:00,
2013-01-12 04:04:00,6.7,3.7,30.07,ENE,59,0.0,0.0,87,0.00,,SKC,0.00,VWS V14.00,2013-01-12 11:04:00,
2013-01-12 04:09:00,6.7,3.7,30.08,ENE,59,0.0,0.0,87,0.00,,SKC,0.00,VWS V14.00,2013-01-12 11:09:00,
2013-01-12 04:14:00,6.7,3.7,30.07,ENE,59,0.0,0.0,87,0.00,,SKC,0.00,VWS V14.00,2013-01-12 11:14:00,
2013-01-12 04:19:00,6.8,3.8,30.08,ENE,59,0.0,2.0,87,0.00,,SKC,0.00,VWS V14.00,2013-01-12 11:19:00,
2013-01-12 04:25:00,7.2,4.4,30.08,ENE,59,0.0,2.0,88,0.00,,SKC,0.00,VWS V14.00,2013-01-12 11:25:00,
2013-01-12 04:30:00,7.4,4.6,30.08,ENE,59,0.0,2.0,88,0.00,,SKC,0.00,VWS V14.00,2013-01-12 11:30:00,
2013-01-12 04:35:00,7.6,4.8,30.08,ENE,59,0.0,0.0,88,0.00,,SKC,0.00,VWS V14.00,2013-01-12 11:35:00,
2013-01-12 04:40:00,7.8,5.0,30.08,ENE,59,0.0,0.0,88,0.00,,SKC,0.00,VWS V14.00,2013-01-12 11:40:00,
2013-01-12 04:46:00,8.0,5.2,30.08,ENE,59,0.0,0.0,88,0.00,,SKC,0.00,VWS V14.00,2013-01-12 11:46:00,
2013-01-12 04:51:00,8.0,4.9,30.08,ENE,59,0.0,0.0,87,0.00,,SKC,0.00,VWS V14.00,2013-01-12 11:51:00,
2013-01-12 04:56:00,8.0,4.9,30.08,ENE,59,0.0,0.0,87,0.00,,SKC,0.00,VWS V14.00,2013-01-12 11:56:00,
2013-01-12 05:01:00,8.0,4.9,30.08,ENE,59,0.0,0.0,87,0.00,,SKC,0.00,VWS V14.00,2013-01-12 12:01:00,
2013-01-12 05:06:00,7.9,4.8,30.08,ENE,59,0.0,1.0,87,0.00,,SKC,0.00,VWS V14.00,2013-01-12 12:06:00,
2013-01-12 05:12:00,7.5,3.9,30.09,ENE,59,0.0,1.0,85,0.00,,SKC,0.00,VWS V14.00,2013-01-12 12:12:00,
2013-01-12 05:17:00,7.0,3.2,30.09,ENE,59,0.0,1.0,84,0.00,,SKC,0.00,VWS V14.00,2013-01-12 12:17:00,
2013-01-12 05:22:00,6.6,2.8,30.09,ENE,59,0.0,1.0,84,0.00,,SKC,0.00,VWS V14.00,2013-01-12 12:22:00,
2013-01-12 05:27:00,6.1,2.3,30.10,ENE,59,0.0,1.0,84,0.00,,SKC,0.00,VWS V14.00,2013-01-12 12:27:00,
2013-01-12 05:32:00,5.6,1.6,30.10,ENE,59,0.0,0.0,83,0.00,,SKC,0.00,VWS V14.00,2013-01-12 12:32:00,
2013-01-12 05:38:00,5.4,1.9,30.10,ENE,59,0.0,1.0,85,0.00,,SKC,0.00,VWS V14.00,2013-01-12 12:38:00,
2013-01-12 05:43:00,5.2,1.4,30.10,ENE,59,0.0,1.0,84,0.00,,SKC,0.00,VWS V14.00,2013-01-12 12:43:00,
2013-01-12 05:48:00,5.0,3.7,30.11,ENE,59,0.0,1.0,94,0.00,,SKC,0.00,VWS V14.00,2013-01-12 12:48:00,
2013-01-12 05:53:00,4.9,1.4,30.11,ENE,59,0.0,1.0,85,0.00,,SKC,0.00,VWS V14.00,2013-01-12 12:53:00,
2013-01-12 05:58:00,4.7,1.2,30.12,ENE,58,0.0,1.0,85,0.00,,SKC,0.00,VWS V14.00,2013-01-12 12:58:00,
2013-01-12 06:04:00,4.7,1.2,30.12,ENE,59,0.0,0.0,85,0.00,,SKC,0.00,VWS V14.00,2013-01-12 13:04:00,
2013-01-12 06:09:00,4.7,1.2,30.12,ENE,59,0.0,0.0,85,0.00,,SKC,0.00,VWS V14.00,2013-01-12 13:09:00,
2013-01-12 06:14:00,4.7,1.4,30.12,ENE,59,0.0,0.0,86,0.00,,SKC,0.00,VWS V14.00,2013-01-12 13:14:00,
2013-01-12 06:19:00,4.9,1.6,30.13,ENE,59,0.0,0.0,86,0.00,,SKC,0.00,VWS V14.00,2013-01-12 13:19:00,
2013-01-12 06:24:00,5.0,2.0,30.13,ENE,59,0.0,0.0,87,0.00,,SKC,0.00,VWS V14.00,2013-01-12 13:24:00,
2013-01-12 06:29:00,4.9,1.6,30.14,ENE,59,0.0,0.0,86,0.00,,SKC,0.00,VWS V14.00,2013-01-12 13:29:00,
2013-01-12 06:35:00,4.8,1.3,30.14,ENE,59,0.0,0.0,85,0.00,,SKC,0.00,VWS V14.00,2013-01-12 13:35:00,
2013-01-12 06:40:00,4.5,1.0,30.15,ENE,59,0.0,0.0,85,0.00,,SKC,0.00,VWS V14.00,2013-01-12 13:40:00,
2013-01-12 06:45:00,4.3,0.8,30.15,ENE,59,0.0,1.0,85,0.00,,SKC,0.00,VWS V14.00,2013-01-12 13:45:00,
2013-01-12 06:50:00,3.7,0.0,30.15,ENE,59,1.0,2.0,84,0.00,,SKC,0.00,VWS V14.00,2013-01-12 13:50:00,
2013-01-12 06:56:00,3.3,-0.4,30.16,ENE,59,0.0,2.0,84,0.00,,SKC,0.00,VWS V14.00,2013-01-12 13:56:00,
2013-01-12 07:01:00,3.0,-0.7,30.16,ENE,59,0.0,2.0,84,0.00,,SKC,0.00,VWS V14.00,2013-01-12 14:01:00,
2013-01-12 07:06:00,2.8,-0.7,30.16,ENE,59,0.0,1.0,85,0.00,,SKC,0.00,VWS V14.00,2013-01-12 14:06:00,
2013-01-12 07:11:00,2.8,-0.7,30.17,ENE,59,0.0,2.0,85,0.00,,SKC,0.00,VWS V14.00,2013-01-12 14:11:00,
2013-01-12 07:16:00,2.7,-0.8,30.18,ENE,59,0.0,2.0,85,0.00,,SKC,0.00,VWS V14.00,2013-01-12 14:16:00,
2013-01-12 07:22:00,2.6,-0.9,30.18,ENE,59,0.0,2.0,85,0.00,,SKC,0.00,VWS V14.00,2013-01-12 14:22:00,
2013-01-12 07:27:00,2.3,-1.4,30.19,ENE,59,0.0,2.0,84,0.00,,SKC,0.00,VWS V14.00,2013-01-12 14:27:00,
2013-01-12 07:32:00,1.7,-2.3,30.19,ENE,59,0.0,2.0,83,0.00,,SKC,0.00,VWS V14.00,2013-01-12 14:32:00,
2013-01-12 07:37:00,1.3,-2.4,30.19,ENE,59,0.0,1.0,84,0.00,,SKC,0.00,VWS V14.00,2013-01-12 14:37:00,
2013-01-12 07:43:00,1.2,-2.5,30.20,ENE,59,0.0,1.0,84,0.00,,SKC,0.00,VWS V14.00,2013-01-12 14:43:00,
2013-01-12 07:48:00,1.0,-2.7,30.20,ENE,59,0.0,1.0,84,0.00,,SKC,0.00,VWS V14.00,2013-01-12 14:48:00,
2013-01-12 07:53:00,0.9,-2.8,30.20,ENE,59,0.0,1.0,84,0.00,,SKC,0.00,VWS V14.00,2013-01-12 14:53:00,
2013-01-12 07:58:00,0.5,-3.2,30.20,ENE,59,1.0,2.0,84,0.00,,SKC,0.00,VWS V14.00,2013-01-12 14:58:00,
2013-01-12 08:04:00,0.1,-3.6,30.20,ENE,59,0.0,2.0,84,0.00,,SKC,0.00,VWS V14.00,2013-01-12 15:04:00,
2013-01-12 08:09:00,-0.1,-3.4,30.21,ENE,59,0.0,2.0,85,0.00,,SKC,0.00,VWS V14.00,2013-01-12 15:09:00,
2013-01-12 08:14:00,-0.1,-3.4,30.21,ENE,59,0.0,2.0,85,0.00,,SKC,0.00,VWS V14.00,2013-01-12 15:14:00,
2013-01-12 08:19:00,-0.1,-3.5,30.21,ENE,59,0.0,2.0,85,0.00,,SKC,0.00,VWS V14.00,2013-01-12 15:19:00,
2013-01-12 08:25:00,-0.3,-4.0,30.22,ENE,59,1.0,2.0,84,0.00,,SKC,0.00,VWS V14.00,2013-01-12 15:25:00,
2013-01-12 08:30:00,-0.2,-3.6,30.22,ENE,59,0.0,2.0,85,0.00,,SKC,0.00,VWS V14.00,2013-01-12 15:30:00,
2013-01-12 08:35:00,-0.3,-4.0,30.23,ENE,59,0.0,0.0,84,0.00,,SKC,0.00,VWS V14.00,2013-01-12 15:35:00,
2013-01-12 08:40:00,-0.3,-3.7,30.23,ENE,59,0.0,0.0,85,0.00,,SKC,0.00,VWS V14.00,2013-01-12 15:40:00,
2013-01-12 08:45:00,-0.4,-3.8,30.23,ENE,59,0.0,0.0,85,0.00,,SKC,0.00,VWS V14.00,2013-01-12 15:45:00,
2013-01-12 08:51:00,-0.3,-3.7,30.24,ENE,59,0.0,0.0,85,0.00,,SKC,0.00,VWS V14.00,2013-01-12 15:51:00,
2013-01-12 08:56:00,-0.3,-3.7,30.24,ENE,59,0.0,0.0,85,0.00,,SKC,0.00,VWS V14.00,2013-01-12 15:56:00,
2013-01-12 09:01:00,-0.1,-3.5,30.24,ENE,59,0.0,0.0,85,0.00,,SKC,0.00,VWS V14.00,2013-01-12 16:01:00,
2013-01-12 09:06:00,0.1,-3.1,30.24,ENE,59,0.0,0.0,86,0.00,,SKC,0.00,VWS V14.00,2013-01-12 16:06:00,
2013-01-12 09:12:00,0.3,-2.9,30.24,ENE,59,0.0,1.0,86,0.00,,SKC,0.00,VWS V14.00,2013-01-12 16:12:00,
2013-01-12 09:17:00,0.9,-1.8,30.24,ENE,59,0.0,1.0,88,0.00,,SKC,0.00,VWS V14.00,2013-01-12 16:17:00,
2013-01-12 09:22:00,2.0,-0.5,30.24,ENE,59,0.0,1.0,89,0.00,,SKC,0.00,VWS V14.00,2013-01-12 16:22:00,
2013-01-12 09:27:00,2.6,-0.1,30.24,ENE,59,0.0,1.0,88,0.00,,SKC,0.00,VWS V14.00,2013-01-12 16:27:00,
2013-01-12 09:32:00,3.3,0.3,30.24,ENE,59,0.0,0.0,87,0.00,,SKC,0.00,VWS V14.00,2013-01-12 16:32:00,
2013-01-12 09:38:00,4.0,1.2,30.24,ENE,59,0.0,1.0,88,0.00,,SKC,0.00,VWS V14.00,2013-01-12 16:38:00,
2013-01-12 09:43:00,4.8,2.0,30.24,ENE,59,0.0,1.0,88,0.00,,SKC,0.00,VWS V14.00,2013-01-12 16:43:00,
2013-01-12 09:48:00,5.8,3.0,30.24,ENE,59,0.0,1.0,88,0.00,,SKC,0.00,VWS V14.00,2013-01-12 16:48:00,
2013-01-12 09:53:00,6.8,4.0,30.24,ENE,59,0.0,1.0,88,0.00,,SKC,0.00,VWS V14.00,2013-01-12 16:53:00,
2013-01-12 09:58:00,7.6,4.0,30.24,ENE,59,0.0,1.0,85,0.00,,SKC,0.00,VWS V14.00,2013-01-12 16:58:00,
2013-01-12 10:04:00,8.3,4.2,30.24,ENE,59,0.0,0.0,83,0.00,,SKC,0.00,VWS V14.00,2013-01-12 17:04:00,
2013-01-12 10:09:00,8.9,4.3,30.25,ENE,59,0.0,0.0,81,0.00,,SKC,0.00,VWS V14.00,2013-01-12 17:09:00,
2013-01-12 10:14:00,9.4,4.5,30.25,SE,142,1.0,2.0,80,0.00,,SKC,0.00,VWS V14.00,2013-01-12 17:14:00,
2013-01-12 10:19:00,9.8,4.9,30.25,SE,142,0.0,2.0,80,0.00,,SKC,0.00,VWS V14.00,2013-01-12 17:19:00,
2013-01-12 10:24:00,10.3,4.8,30.25,South,178,0.0,4.0,78,0.00,,SKC,0.00,VWS V14.00,2013-01-12 17:24:00,
2013-01-12 10:30:00,10.9,5.4,30.25,South,178,2.0,4.0,78,0.00,,SKC,0.00,VWS V14.00,2013-01-12 17:30:00,
2013-01-12 10:35:00,11.3,5.5,30.25,South,178,0.0,2.0,77,0.00,,SKC,0.00,VWS V14.00,2013-01-12 17:35:00,
2013-01-12 10:40:00,11.8,6.0,30.24,South,178,0.0,2.0,77,0.00,,SKC,0.00,VWS V14.00,2013-01-12 17:40:00,
2013-01-12 10:45:00,12.3,6.2,30.24,South,178,0.0,2.0,76,0.00,,SKC,0.00,VWS V14.00,2013-01-12 17:45:00,
2013-01-12 10:51:00,12.7,6.3,30.24,South,178,0.0,2.0,75,0.00,,SKC,0.00,VWS V14.00,2013-01-12 17:51:00,
2013-01-12 10:56:00,13.2,6.2,30.24,South,178,0.0,2.0,73,0.00,,SKC,0.00,VWS V14.00,2013-01-12 17:56:00,
2013-01-12 11:01:00,13.5,6.2,30.23,South,178,1.0,2.0,72,0.00,,SKC,0.00,VWS V14.00,2013-01-12 18:01:00,
2013-01-12 11:06:00,13.9,6.2,30.23,South,188,1.0,2.0,71,0.00,,SKC,0.00,VWS V14.00,2013-01-12 18:06:00,
2013-01-12 11:12:00,14.2,6.2,30.23,South,188,0.0,2.0,70,0.00,,SKC,0.00,VWS V14.00,2013-01-12 18:12:00,
2013-01-12 11:17:00,14.8,6.8,30.23,South,188,0.0,2.0,70,0.00,,SKC,0.00,VWS V14.00,2013-01-12 18:17:00,
2013-01-12 11:22:00,15.3,6.7,30.23,South,188,0.0,2.0,68,0.00,,SKC,0.00,VWS V14.00,2013-01-12 18:22:00,
2013-01-12 11:27:00,15.8,6.8,30.22,South,188,0.0,2.0,67,0.00,,SKC,0.00,VWS V14.00,2013-01-12 18:27:00,
2013-01-12 11:38:00,16.9,6.8,30.21,South,188,0.0,3.0,64,0.00,,SKC,0.00,VWS V14.00,2013-01-12 18:38:00,
2013-01-12 11:43:00,17.0,6.9,30.21,South,188,0.0,3.0,64,0.00,,SKC,0.00,VWS V14.00,2013-01-12 18:43:00,
2013-01-12 11:48:00,17.2,6.8,30.20,South,175,2.0,4.0,63,0.00,,SKC,0.00,VWS V14.00,2013-01-12 18:48:00,
2013-01-12 11:54:00,17.2,6.4,30.21,SSW,196,1.0,4.0,62,0.00,,SKC,0.00,VWS V14.00,2013-01-12 18:54:00,
2013-01-12 11:59:00,17.5,6.7,30.20,SSW,196,2.0,4.0,62,0.00,,SKC,0.00,VWS V14.00,2013-01-12 18:59:00,
2013-01-12 12:04:00,17.7,5.4,30.19,SSW,196,2.0,3.0,58,0.00,,SKC,0.00,VWS V14.00,2013-01-12 19:04:00,
2013-01-12 12:09:00,18.2,5.5,30.19,SSW,198,0.0,3.0,57,0.00,,SKC,0.00,VWS V14.00,2013-01-12 19:09:00,
2013-01-12 12:15:00,18.8,5.7,30.19,South,178,2.0,4.0,56,0.00,,SKC,0.00,VWS V14.00,2013-01-12 19:15:00,
2013-01-12 12:20:00,19.1,5.2,30.19,South,169,2.0,4.0,54,0.00,,SKC,0.00,VWS V14.00,2013-01-12 19:20:00,
2013-01-12 12:25:00,19.3,5.4,30.19,South,190,2.0,4.0,54,0.00,,SKC,0.00,VWS V14.00,2013-01-12 19:25:00,
2013-01-12 12:30:00,19.6,5.3,30.18,SW,216,0.0,5.0,53,0.00,,SKC,0.00,VWS V14.00,2013-01-12 19:30:00,
2013-01-12 12:35:00,19.7,2.8,30.18,SSW,200,2.0,6.0,47,0.00,,SKC,0.00,VWS V14.00,2013-01-12 19:35:00,
2013-01-12 12:41:00,19.6,3.1,30.18,SSW,213,1.0,6.0,48,0.00,,SKC,0.00,VWS V14.00,2013-01-12 19:41:00,
2013-01-12 12:46:00,19.7,3.7,30.18,SSW,213,2.0,6.0,49,0.00,,SKC,0.00,VWS V14.00,2013-01-12 19:46:00,
2013-01-12 12:51:00,19.8,3.7,30.18,SSW,209,3.0,6.0,49,0.00,,SKC,0.00,VWS V14.00,2013-01-12 19:51:00,
2013-01-12 12:56:00,20.0,4.4,30.18,SSW,212,2.0,6.0,50,0.00,,SKC,0.00,VWS V14.00,2013-01-12 19:56:00,
2013-01-12 13:01:00,20.0,3.5,30.18,South,186,3.0,6.0,48,0.00,,SKC,0.00,VWS V14.00,2013-01-12 20:01:00,
2013-01-12 13:07:00,20.0,3.0,30.18,SSE,163,2.0,6.0,47,0.00,,SKC,0.00,VWS V14.00,2013-01-12 20:07:00,
2013-01-12 13:12:00,20.0,3.5,30.18,South,187,1.0,7.0,48,0.00,,SKC,0.00,VWS V14.00,2013-01-12 20:12:00,
2013-01-12 13:17:00,20.1,3.6,30.18,SSW,198,3.0,7.0,48,0.00,,SKC,0.00,VWS V14.00,2013-01-12 20:17:00,
2013-01-12 13:22:00,20.0,3.0,30.17,SSW,204,4.0,9.0,47,0.00,,SKC,0.00,VWS V14.00,2013-01-12 20:22:00,
2013-01-12 13:27:00,20.1,2.7,30.18,South,175,2.0,9.0,46,0.00,,SKC,0.00,VWS V14.00,2013-01-12 20:27:00,
2013-01-12 13:33:00,20.5,3.5,30.17,SSW,198,3.0,5.0,47,0.00,,SKC,0.00,VWS V14.00,2013-01-12 20:33:00,
2013-01-12 13:38:00,20.3,2.4,30.17,South,188,1.0,5.0,45,0.00,,SKC,0.00,VWS V14.00,2013-01-12 20:38:00,
2013-01-12 13:43:00,20.7,3.2,30.17,SW,221,3.0,6.0,46,0.00,,SKC,0.00,VWS V14.00,2013-01-12 20:43:00,
2013-01-12 13:48:00,20.9,2.9,30.17,SSW,209,0.0,6.0,45,0.00,,SKC,0.00,VWS V14.00,2013-01-12 20:48:00,
2013-01-12 13:54:00,21.5,3.5,30.17,SW,219,4.0,6.0,45,0.00,,SKC,0.00,VWS V14.00,2013-01-12 20:54:00,
2013-01-12 13:59:00,20.9,0.9,30.17,SE,140,0.0,8.0,41,0.00,,SKC,0.00,VWS V14.00,2013-01-12 20:59:00,
2013-01-12 14:04:00,20.0,1.1,30.17,ENE,67,4.0,6.0,43,0.00,,SKC,0.00,VWS V14.00,2013-01-12 21:04:00,
2013-01-12 14:09:00,19.7,2.3,30.17,SSW,204,1.0,6.0,46,0.00,,SKC,0.00,VWS V14.00,2013-01-12 21:09:00,
2013-01-12 14:14:00,20.1,2.2,30.18,SSW,193,2.0,6.0,45,0.00,,SKC,0.00,VWS V14.00,2013-01-12 21:14:00,
2013-01-12 14:20:00,20.4,2.5,30.18,South,173,4.0,8.0,45,0.00,,SKC,0.00,VWS V14.00,2013-01-12 21:20:00,
2013-01-12 14:25:00,20.2,1.8,30.18,South,180,0.0,8.0,44,0.00,,SKC,0.00,VWS V14.00,2013-01-12 21:25:00,
2013-01-12 14:30:00,20.1,2.2,30.18,South,183,0.0,8.0,45,0.00,,SKC,0.00,VWS V14.00,2013-01-12 21:30:00,
2013-01-12 14:35:00,20.2,2.3,30.18,South,187,6.0,9.0,45,0.00,,SKC,0.00,VWS V14.00,2013-01-12 21:35:00,
2013-01-12 14:41:00,19.8,1.4,30.18,South,189,4.0,9.0,44,0.00,,SKC,0.00,VWS V14.00,2013-01-12 21:41:00,
2013-01-12 14:46:00,19.5,2.1,30.18,South,190,2.0,9.0,46,0.00,,SKC,0.00,VWS V14.00,2013-01-12 21:46:00,
2013-01-12 14:51:00,19.3,1.5,30.18,South,184,1.0,9.0,45,0.00,,SKC,0.00,VWS V14.00,2013-01-12 21:51:00,
2013-01-12 14:56:00,19.3,2.4,30.18,SW,221,3.0,9.0,47,0.00,,SKC,0.00,VWS V14.00,2013-01-12 21:56:00,
2013-01-12 15:01:00,19.4,2.5,30.19,SW,219,0.0,9.0,47,0.00,,SKC,0.00,VWS V14.00,2013-01-12 22:01:00,
2013-01-12 15:07:00,19.8,3.3,30.19,SSW,205,0.0,3.0,48,0.00,,SKC,0.00,VWS V14.00,2013-01-12 22:07:00,
2013-01-12 15:12:00,19.9,2.9,30.19,SSW,203,0.0,3.0,47,0.00,,SKC,0.00,VWS V14.00,2013-01-12 22:12:00,
2013-01-12 15:17:00,19.5,3.0,30.19,South,178,4.0,5.0,48,0.00,,SKC,0.00,VWS V14.00,2013-01-12 22:17:00,
2013-01-12 15:22:00,19.0,3.0,30.19,South,184,0.0,5.0,49,0.00,,SKC,0.00,VWS V14.00,2013-01-12 22:22:00,
2013-01-12 15:28:00,19.1,4.0,30.19,South,175,4.0,5.0,51,0.00,,SKC,0.00,VWS V14.00,2013-01-12 22:28:00,
2013-01-12 15:33:00,19.6,4.0,30.19,South,178,4.0,7.0,50,0.00,,SKC,0.00,VWS V14.00,2013-01-12 22:33:00,
2013-01-12 15:38:00,19.6,3.5,30.19,South,186,0.0,7.0,49,0.00,,SKC,0.00,VWS V14.00,2013-01-12 22:38:00,
2013-01-12 15:43:00,19.6,4.0,30.19,SW,214,0.0,7.0,50,0.00,,SKC,0.00,VWS V14.00,2013-01-12 22:43:00,
2013-01-12 15:49:00,19.5,3.9,30.19,NNW,329,0.0,7.0,50,0.00,,SKC,0.00,VWS V14.00,2013-01-12 22:49:00,
2013-01-12 15:54:00,19.8,4.6,30.19,NW,321,0.0,7.0,51,0.00,,SKC,0.00,VWS V14.00,2013-01-12 22:54:00,
2013-01-12 15:59:00,19.9,3.4,30.19,North,350,0.0,7.0,48,0.00,,SKC,0.00,VWS V14.00,2013-01-12 22:59:00,
2013-01-12 16:04:00,19.6,1.7,30.19,NNW,340,0.0,2.0,45,0.00,,SKC,0.00,VWS V14.00,2013-01-12 23:04:00,
2013-01-12 16:10:00,19.7,2.8,30.19,NNW,340,0.0,2.0,47,0.00,,SKC,0.00,VWS V14.00,2013-01-12 23:10:00,
2013-01-12 16:15:00,19.9,3.4,30.19,NNW,340,0.0,2.0,48,0.00,,SKC,0.00,VWS V14.00,2013-01-12 23:15:00,
2013-01-12 16:20:00,19.5,2.6,30.19,NNW,340,0.0,2.0,47,0.00,,SKC,0.00,VWS V14.00,2013-01-12 23:20:00,
2013-01-12 16:25:00,19.4,2.9,30.19,NNW,340,0.0,2.0,48,0.00,,SKC,0.00,VWS V14.00,2013-01-12 23:25:00,
2013-01-12 16:31:00,19.2,2.3,30.19,WNW,291,0.0,4.0,47,0.00,,SKC,0.00,VWS V14.00,2013-01-12 23:31:00,
2013-01-12 16:36:00,18.8,2.8,30.19,West,279,1.0,2.0,49,0.00,,SKC,0.00,VWS V14.00,2013-01-12 23:36:00,
2013-01-12 16:41:00,18.5,3.4,30.19,West,279,0.0,2.0,51,0.00,,SKC,0.00,VWS V14.00,2013-01-12 23:41:00,
2013-01-12 16:46:00,18.1,3.5,30.19,West,279,0.0,2.0,52,0.00,,SKC,0.00,VWS V14.00,2013-01-12 23:46:00,
2013-01-12 16:52:00,17.3,3.9,30.19,West,279,0.0,2.0,55,0.00,,SKC,0.00,VWS V14.00,2013-01-12 23:52:00,
2013-01-12 16:57:00,16.7,5.6,30.20,West,281,0.0,2.0,61,0.00,,SKC,0.00,VWS V14.00,2013-01-12 23:57:00,
2013-01-12 17:02:00,15.5,5.2,30.20,West,281,0.0,0.0,63,0.00,,SKC,0.00,VWS V14.00,2013-01-13 00:02:00,
2013-01-12 17:08:00,14.8,5.5,30.20,WNW,286,0.0,2.0,66,0.00,,SKC,0.00,VWS V14.00,2013-01-13 00:08:00,
2013-01-12 17:13:00,13.9,5.0,30.20,WNW,290,2.0,2.0,67,0.00,,SKC,0.00,VWS V14.00,2013-01-13 00:13:00,
2013-01-12 17:18:00,13.3,5.1,30.20,NE,34,1.0,4.0,69,0.00,,SKC,0.00,VWS V14.00,2013-01-13 00:18:00,
2013-01-12 17:23:00,12.8,4.9,30.20,NE,40,1.0,4.0,70,0.00,,SKC,0.00,VWS V14.00,2013-01-13 00:23:00,
2013-01-12 17:29:00,12.2,4.9,30.20,NE,40,2.0,4.0,72,0.00,,SKC,0.00,VWS V14.00,2013-01-13 00:29:00,
2013-01-12 17:34:00,11.7,4.4,30.21,NE,40,0.0,1.0,72,0.00,,SKC,0.00,VWS V14.00,2013-01-13 00:34:00,
2013-01-12 17:39:00,11.3,4.1,30.21,NE,40,0.0,1.0,72,0.00,,SKC,0.00,VWS V14.00,2013-01-13 00:39:00,
2013-01-12 17:44:00,10.9,4.2,30.21,NE,40,0.0,1.0,74,0.00,,SKC,0.00,VWS V14.00,2013-01-13 00:44:00,
2013-01-12 17:50:00,10.4,3.8,30.21,NE,40,0.0,1.0,74,0.00,,SKC,0.00,VWS V14.00,2013-01-13 00:50:00,
2013-01-12 17:55:00,10.0,3.7,30.22,NE,40,0.0,2.0,75,0.00,,SKC,0.00,VWS V14.00,2013-01-13 00:55:00,
2013-01-12 18:00:00,9.4,3.1,30.22,NE,40,1.0,2.0,75,0.00,,SKC,0.00,VWS V14.00,2013-01-13 01:00:00,
2013-01-12 18:05:00,9.0,3.0,30.22,NE,40,1.0,2.0,76,0.00,,SKC,0.00,VWS V14.00,2013-01-13 01:05:00,
2013-01-12 18:11:00,9.0,3.5,30.22,NE,40,0.0,2.0,78,0.00,,SKC,0.00,VWS V14.00,2013-01-13 01:11:00,
2013-01-12 18:16:00,8.9,3.2,30.22,NE,40,0.0,2.0,77,0.00,,SKC,0.00,VWS V14.00,2013-01-13 01:16:00,
2013-01-12 18:21:00,8.7,3.0,30.22,NE,40,0.0,2.0,77,0.00,,SKC,0.00,VWS V14.00,2013-01-13 01:21:00,
2013-01-12 18:26:00,8.2,2.5,30.23,NE,40,0.0,2.0,77,0.00,,SKC,0.00,VWS V14.00,2013-01-13 01:26:00,
2013-01-12 18:32:00,8.0,2.3,30.23,NE,40,0.0,2.0,77,0.00,,SKC,0.00,VWS V14.00,2013-01-13 01:32:00,
2013-01-12 18:37:00,7.8,2.7,30.23,NE,40,1.0,1.0,79,0.00,,SKC,0.00,VWS V14.00,2013-01-13 01:37:00,
2013-01-12 18:42:00,7.8,2.7,30.23,NE,40,0.0,2.0,79,0.00,,SKC,0.00,VWS V14.00,2013-01-13 01:42:00,
2013-01-12 18:47:00,7.3,1.9,30.23,NE,40,1.0,3.0,78,0.00,,SKC,0.00,VWS V14.00,2013-01-13 01:47:00,
2013-01-12 18:53:00,7.1,2.0,30.23,NE,40,0.0,3.0,79,0.00,,SKC,0.00,VWS V14.00,2013-01-13 01:53:00,
2013-01-12 18:58:00,6.7,1.3,30.23,NE,40,0.0,3.0,78,0.00,,SKC,0.00,VWS V14.00,2013-01-13 01:58:00,
2013-01-12 19:03:00,6.6,1.8,30.23,NE,40,0.0,0.0,80,0.00,,SKC,0.00,VWS V14.00,2013-01-13 02:03:00,
2013-01-12 19:08:00,6.4,1.3,30.23,NE,40,1.0,1.0,79,0.00,,SKC,0.00,VWS V14.00,2013-01-13 02:08:00,
2013-01-12 19:14:00,6.1,1.3,30.24,NE,40,0.0,2.0,80,0.00,,SKC,0.00,VWS V14.00,2013-01-13 02:14:00,
2013-01-12 19:19:00,6.1,1.5,30.23,NE,40,0.0,2.0,81,0.00,,SKC,0.00,VWS V14.00,2013-01-13 02:19:00,
2013-01-12 19:24:00,6.2,1.6,30.24,NE,40,0.0,2.0,81,0.00,,SKC,0.00,VWS V14.00,2013-01-13 02:24:00,
2013-01-12 19:29:00,6.4,2.3,30.23,NE,40,0.0,2.0,83,0.00,,SKC,0.00,VWS V14.00,2013-01-13 02:29:00,
2013-01-12 19:35:00,6.6,2.0,30.24,NE,40,0.0,0.0,81,0.00,,SKC,0.00,VWS V14.00,2013-01-13 02:35:00,
2013-01-12 19:40:00,6.6,2.3,30.24,NE,40,0.0,0.0,82,0.00,,SKC,0.00,VWS V14.00,2013-01-13 02:40:00,
2013-01-12 19:45:00,6.8,2.5,30.24,NE,40,0.0,0.0,82,0.00,,SKC,0.00,VWS V14.00,2013-01-13 02:45:00,
2013-01-12 19:50:00,6.7,2.1,30.24,NE,40,0.0,0.0,81,0.00,,SKC,0.00,VWS V14.00,2013-01-13 02:50:00,
2013-01-12 19:56:00,6.6,2.0,30.24,NE,40,0.0,1.0,81,0.00,,SKC,0.00,VWS V14.00,2013-01-13 02:56:00,
2013-01-12 20:01:00,6.6,2.3,30.24,NE,40,0.0,1.0,82,0.00,,SKC,0.00,VWS V14.00,2013-01-13 03:01:00,
2013-01-12 20:06:00,6.5,1.9,30.24,NE,40,0.0,0.0,81,0.00,,SKC,0.00,VWS V14.00,2013-01-13 03:06:00,
2013-01-12 20:11:00,6.4,1.8,30.23,NE,40,0.0,1.0,81,0.00,,SKC,0.00,VWS V14.00,2013-01-13 03:11:00,
2013-01-12 20:17:00,6.3,2.0,30.24,NE,40,0.0,1.0,82,0.00,,SKC,0.00,VWS V14.00,2013-01-13 03:17:00,
2013-01-12 20:22:00,6.1,1.8,30.24,NE,40,0.0,1.0,82,0.00,,SKC,0.00,VWS V14.00,2013-01-13 03:22:00,
2013-01-12 20:27:00,6.0,1.7,30.24,NE,40,0.0,1.0,82,0.00,,SKC,0.00,VWS V14.00,2013-01-13 03:27:00,
2013-01-12 20:32:00,5.9,1.9,30.24,NE,40,0.0,1.0,83,0.00,,SKC,0.00,VWS V14.00,2013-01-13 03:32:00,
2013-01-12 20:37:00,6.0,2.2,30.24,NE,40,0.0,2.0,84,0.00,,SKC,0.00,VWS V14.00,2013-01-13 03:37:00,
2013-01-12 20:43:00,6.0,2.0,30.25,NE,40,0.0,2.0,83,0.00,,SKC,0.00,VWS V14.00,2013-01-13 03:43:00,
2013-01-12 20:48:00,5.8,1.8,30.25,NE,40,0.0,2.0,83,0.00,,SKC,0.00,VWS V14.00,2013-01-13 03:48:00,
2013-01-12 20:53:00,5.6,1.6,30.25,NE,40,0.0,2.0,83,0.00,,SKC,0.00,VWS V14.00,2013-01-13 03:53:00,
2013-01-12 20:58:00,5.4,1.4,30.25,NE,40,0.0,2.0,83,0.00,,SKC,0.00,VWS V14.00,2013-01-13 03:58:00,
2013-01-12 21:04:00,5.2,1.2,30.25,NE,40,0.0,0.0,83,0.00,,SKC,0.00,VWS V14.00,2013-01-13 04:04:00,
2013-01-12 21:09:00,5.1,1.3,30.25,NE,40,0.0,0.0,84,0.00,,SKC,0.00,VWS V14.00,2013-01-13 04:09:00,
2013-01-12 21:14:00,5.0,3.9,30.25,NE,40,0.0,0.0,95,0.00,,SKC,0.00,VWS V14.00,2013-01-13 04:14:00,
2013-01-12 21:19:00,4.8,1.0,30.25,NE,40,0.0,1.0,84,0.00,,SKC,0.00,VWS V14.00,2013-01-13 04:19:00,
2013-01-12 21:24:00,4.5,0.5,30.25,NE,40,0.0,1.0,83,0.00,,SKC,0.00,VWS V14.00,2013-01-13 04:24:00,
2013-01-12 21:30:00,4.2,0.4,30.25,NE,40,0.0,1.0,84,0.00,,SKC,0.00,VWS V14.00,2013-01-13 04:30:00,
2013-01-12 21:35:00,4.2,0.7,30.25,NE,40,0.0,0.0,85,0.00,,SKC,0.00,VWS V14.00,2013-01-13 04:35:00,
2013-01-12 21:40:00,4.1,0.6,30.26,NE,40,0.0,0.0,85,0.00,,SKC,0.00,VWS V14.00,2013-01-13 04:40:00,
2013-01-12 21:46:00,3.9,0.2,30.26,NE,40,0.0,1.0,84,0.00,,SKC,0.00,VWS V14.00,2013-01-13 04:46:00,
2013-01-12 21:51:00,3.8,0.1,30.26,NE,40,0.0,1.0,84,0.00,,SKC,0.00,VWS V14.00,2013-01-13 04:51:00,
2013-01-12 21:56:00,3.7,0.2,30.26,NE,40,0.0,1.0,85,0.00,,SKC,0.00,VWS V14.00,2013-01-13 04:56:00,
2013-01-12 22:02:00,3.6,0.4,30.26,NE,40,0.0,1.0,86,0.00,,SKC,0.00,VWS V14.00,2013-01-13 05:02:00,
2013-01-12 22:03:00,3.6,0.4,30.27,NE,40,0.0,0.0,86,0.00,,SKC,0.00,VWS V14.00,2013-01-13 05:03:00,
2013-01-12 22:04:00,3.6,0.1,30.26,NE,40,0.0,0.0,85,0.00,,SKC,0.00,VWS V14.00,2013-01-13 05:04:00,
2013-01-12 22:09:00,3.5,0.0,30.27,NE,40,0.0,0.0,85,0.00,,SKC,0.00,VWS V14.00,2013-01-13 05:09:00,
2013-01-12 22:14:00,3.3,-0.2,30.27,NE,40,0.0,0.0,85,0.00,,SKC,0.00,VWS V14.00,2013-01-13 05:14:00,
2013-01-12 22:20:00,3.2,-0.3,30.27,NE,40,0.0,0.0,85,0.00,,SKC,0.00,VWS V14.00,2013-01-13 05:20:00,
2013-01-12 22:25:00,3.1,-0.4,30.27,NE,40,0.0,0.0,85,0.00,,SKC,0.00,VWS V14.00,2013-01-13 05:25:00,
2013-01-12 22:30:00,3.0,-0.5,30.27,NE,40,0.0,0.0,85,0.00,,SKC,0.00,VWS V14.00,2013-01-13 05:30:00,
2013-01-12 22:35:00,3.0,-0.5,30.27,NE,40,0.0,0.0,85,0.00,,SKC,0.00,VWS V14.00,2013-01-13 05:35:00,
2013-01-12 22:40:00,2.9,-0.6,30.27,NE,40,1.0,1.0,85,0.00,,SKC,0.00,VWS V14.00,2013-01-13 05:40:00,
2013-01-12 22:46:00,2.7,-1.0,30.28,NE,40,0.0,2.0,84,0.00,,SKC,0.00,VWS V14.00,2013-01-13 05:46:00,
2013-01-12 22:51:00,2.4,-1.3,30.28,NE,40,0.0,2.0,84,0.00,,SKC,0.00,VWS V14.00,2013-01-13 05:51:00,
2013-01-12 22:56:00,2.2,-1.5,30.28,NE,40,0.0,2.0,84,0.00,,SKC,0.00,VWS V14.00,2013-01-13 05:56:00,
2013-01-12 23:01:00,2.1,-1.6,30.28,NE,40,0.0,2.0,84,0.00,,SKC,0.00,VWS V14.00,2013-01-13 06:01:00,
2013-01-12 23:07:00,2.0,-1.7,30.28,NE,40,0.0,0.0,84,0.00,,SKC,0.00,VWS V14.00,2013-01-13 06:07:00,
2013-01-12 23:12:00,2.2,-1.3,30.28,NE,40,0.0,0.0,85,0.00,,SKC,0.00,VWS V14.00,2013-01-13 06:12:00,
2013-01-12 23:17:00,2.4,-0.8,30.29,NE,40,0.0,0.0,86,0.00,,SKC,0.00,VWS V14.00,2013-01-13 06:17:00,
2013-01-12 23:22:00,2.4,-1.1,30.29,NE,40,0.0,0.0,85,0.00,,SKC,0.00,VWS V14.00,2013-01-13 06:22:00,
2013-01-12 23:27:00,2.5,-1.0,30.29,NE,40,0.0,0.0,85,0.00,,SKC,0.00,VWS V14.00,2013-01-13 06:27:00,
2013-01-12 23:33:00,2.7,-0.5,30.29,NE,40,0.0,0.0,86,0.00,,SKC,0.00,VWS V14.00,2013-01-13 06:33:00,
2013-01-12 23:38:00,2.8,-0.7,30.29,NE,40,1.0,1.0,85,0.00,,SKC,0.00,VWS V14.00,2013-01-13 06:38:00,
2013-01-12 23:43:00,2.9,-0.6,30.30,NE,40,0.0,1.0,85,0.00,,SKC,0.00,VWS V14.00,2013-01-13 06:43:00,
2013-01-12 23:48:00,3.2,0.0,30.30,NE,40,0.0,1.0,86,0.00,,SKC,0.00,VWS V14.00,2013-01-13 06:48:00,
2013-01-12 23:53:00,3.6,0.1,30.30,NE,40,0.0,2.0,85,0.00,,SKC,0.00,VWS V14.00,2013-01-13 06:53:00,
2013-01-12 23:59:00,3.8,0.1,30.30,NE,40,0.0,2.0,84,0.00,,SKC,0.00,VWS V14.00,2013-01-13 06:59:00,